Somerville, NJ

2:54 AM EDT on May 26, 2017 (GMT -0400)
Somerset

Weather History for KSMQ - March, 2013

Change the Weather History Date:

Tuesday, March 19, 2013

  Actual Average Record
Temperature  
Mean Temperature 42 °F -  
Max Temperature 48 °F 48 °F 78 °F (2012)
Min Temperature 35 °F 26 °F 0 °F (1967)
Degree Days  
Heating Degree Days 24    
Moisture  
Dew Point 32 °F    
Average Humidity 81    
Maximum Humidity 100    
Minimum Humidity 35    
Precipitation  
Precipitation 0.71 in - - ()
Sea Level Pressure  
Sea Level Pressure 29.77 in    
Wind  
Wind Speed 5 mph (NW)    
Max Wind Speed 18 mph    
Max Gust Speed 31 mph    
Visibility 7 miles    
Events Rain    
Averages and records for this station are not official NWS values.
T = Trace of Precipitation, MM = Missing Value Source: NWS Daily Summary

Daily Weather History Graph

Daily Weather History Graph

Search for Another Location

Airport or City:

Trip Planner

Search our weather history database for the weather conditions in past years. The results will help you decide how hot, cold, wet, or windy it might be!

Date:

Astronomy

Mar. 19, 2013 Rise Set
Actual Time 7:03 AM EDT 7:09 PM EDT
Civil Twilight 6:36 AM EDT 7:37 PM EDT
Nautical Twilight 6:04 AM EDT 8:09 PM EDT
Astronomical Twilight 5:31 AM EDT 8:41 PM EDT
Moon 11:49 AM EDT (3/19) 1:56 AM EDT (3/19)
Length of Visible Light 13h 01m
Length of Day
12h 06m
Waxing Crescent, 49% of the Moon is Illuminated
Mar 19
Waxing Crescent
Mar 19
First Quarter
Mar 27
Full
Apr 3
Last Quarter
Apr 10
New

Hourly Weather History & Observations

Time (EDT) Temp. Windchill Dew Point Humidity Pressure Visibility Wind Dir Wind Speed Gust Speed Precip Events Conditions
12:53 AM 35.1 °F 32.2 °F 33.1 °F 92% 29.93 in 5.0 mi Variable 3.5 mph - 0.16 in Rain Light Rain
1:53 AM 35.1 °F 28.6 °F 33.1 °F 92% 29.90 in 4.0 mi East 8.1 mph - 0.09 in Rain Light Rain
2:53 AM 35.1 °F 32.2 °F 33.1 °F 92% 29.87 in 6.0 mi Variable 3.5 mph - 0.10 in Rain Light Rain
3:53 AM 35.1 °F 31.0 °F 33.1 °F 92% 29.83 in 10.0 mi NE 4.6 mph - 0.04 in Rain Light Rain
4:53 AM 35.1 °F 32.2 °F 32.0 °F 89% 29.82 in 10.0 mi Variable 3.5 mph - 0.03 in   Overcast
5:53 AM 35.1 °F 31.0 °F 33.1 °F 92% 29.78 in 10.0 mi Variable 4.6 mph - 0.02 in   Overcast
6:02 AM 35.6 °F 32.8 °F 33.8 °F 93% 29.77 in 10.0 mi Variable 3.5 mph 18.4 mph 0.01 in   Overcast
6:53 AM 35.1 °F 29.3 °F 33.1 °F 92% 29.78 in 10.0 mi Variable 6.9 mph - 0.03 in   Overcast
7:53 AM 36.0 °F 32.1 °F 34.0 °F 93% 29.77 in 6.0 mi Variable 4.6 mph - 0.02 in   Overcast
8:53 AM 36.0 °F 31.1 °F 34.0 °F 93% 29.75 in 3.0 mi NNE 5.8 mph - 0.03 in   Overcast
9:01 AM 35.6 °F 31.7 °F 33.8 °F 93% 29.74 in 2.5 mi Variable 4.6 mph - N/A   Overcast
9:53 AM 35.1 °F 30.1 °F 34.0 °F 96% 29.78 in 2.0 mi NW 5.8 mph - 0.04 in Rain Rain
10:11 AM 35.6 °F 30.7 °F 33.8 °F 93% 29.77 in 4.0 mi WNW 5.8 mph - 0.02 in Rain Light Rain
10:31 AM 35.6 °F 30.7 °F 33.8 °F 93% 29.77 in 4.0 mi NW 5.8 mph - 0.04 in Rain Light Rain
10:53 AM 36.0 °F 33.3 °F 35.1 °F 97% 29.78 in 3.0 mi NNW 3.5 mph - 0.06 in Rain Rain
10:57 AM 35.6 °F 31.7 °F 35.6 °F 100% 29.77 in 2.5 mi NNW 4.6 mph - 0.02 in Rain Rain
11:09 AM 35.6 °F 32.8 °F 35.6 °F 100% 29.75 in 1.5 mi North 3.5 mph - 0.07 in Rain Rain
11:13 AM 35.6 °F 32.8 °F 35.6 °F 100% 29.75 in 2.0 mi North 3.5 mph - 0.08 in Rain Light Rain
11:20 AM 35.6 °F 31.7 °F 35.6 °F 100% 29.76 in 4.0 mi NW 4.6 mph - 0.08 in Rain Light Rain
11:53 AM 37.0 °F 33.3 °F 35.1 °F 93% 29.76 in 10.0 mi North 4.6 mph - 0.09 in   Overcast
11:59 AM 37.4 °F 32.8 °F 35.6 °F 93% 29.76 in 10.0 mi Variable 5.8 mph - N/A   Overcast
12:13 PM 37.4 °F 32.1 °F 35.6 °F 93% 29.76 in 10.0 mi NW 6.9 mph - N/A   Overcast
12:28 PM 37.4 °F 33.8 °F 35.6 °F 93% 29.76 in 10.0 mi WNW 4.6 mph - N/A   Overcast
12:53 PM 39.0 °F 34.8 °F 34.0 °F 82% 29.76 in 10.0 mi NW 5.8 mph - N/A   Overcast
1:53 PM 39.9 °F 35.8 °F 34.0 °F 79% 29.72 in 10.0 mi Variable 5.8 mph - N/A   Overcast
2:53 PM 45.0 °F 39.7 °F 35.1 °F 68% 29.72 in 10.0 mi NW 10.4 mph 20.7 mph N/A   Mostly Cloudy
3:53 PM 46.9 °F - 34.0 °F 61% 29.71 in 10.0 mi Variable 5.8 mph - N/A   Scattered Clouds
4:53 PM 48.9 °F - 32.0 °F 52% 29.70 in 10.0 mi WNW 9.2 mph - N/A   Clear
5:53 PM 48.9 °F - 30.0 °F 48% 29.69 in 10.0 mi Variable 3.5 mph - N/A   Clear
6:53 PM 48.0 °F - 26.1 °F 42% 29.70 in 10.0 mi West 9.2 mph - N/A   Mostly Cloudy
7:53 PM 42.1 °F - 30.0 °F 62% 29.72 in 10.0 mi Calm Calm - N/A   Clear
8:53 PM 44.1 °F 37.7 °F 26.1 °F 49% 29.75 in 10.0 mi WNW 12.7 mph 26.5 mph N/A   Mostly Cloudy
9:53 PM 42.1 °F 35.2 °F 19.0 °F 40% 29.79 in 10.0 mi WNW 12.7 mph 27.6 mph N/A   Scattered Clouds
10:53 PM 39.9 °F 30.8 °F 14.0 °F 35% 29.81 in 10.0 mi NW 18.4 mph 31.1 mph N/A   Overcast
11:53 PM 37.0 °F 34.5 °F 16.0 °F 42% 29.83 in 10.0 mi Variable 3.5 mph - N/A   Partly Cloudy